Location: *
(37.5724°S, 58.0067°E)
Time: 11:45:07
(UTC+00:00)

Cosmos 2297 - Pass Details

Date: 26 September 2020
Orbit: 837 x 857 km, 71.0° (Epoch: 29 October)

Event Time Altitude Azimuth Distance (km) Brightness Sun altitude
Rises 15:23:25 0° 207° (SSW) 3,462 7.5 -15.5°
Reaches altitude 10° 15:25:56 10° 210° (SSW) 2,519 6.8 -16.0°
Maximum altitude 15:31:36 57° 287° (WNW) 1,009 4.4 -17.1°
Drops below altitude 10° 15:37:12 10° 5° (N) 2,486 5.9 -18.2°
Enters shadow 15:39:29 - 8° (N) 3,346 6.6 -18.6°
